Location: Theodore Roosevelt Nature Center
(40.5943°N, 73.5104°W)
Time: 10:06:45
(UTC-04:00)

ISS - Visible Passes

Search period start: 22 October 2019 00:00
Search period end: 01 November 2019 00:00
Orbit: 411 x 421 km, 51.6° (Epoch: 22 October)

Date Brightness Start Highest point End Pass type
(mag) Time Alt. Az. Time Alt. Az. Time Alt. Az.
23 Oct -1.2 06:12:49 10° S 06:15:25 21° SE 06:18:03 10° E visible
24 Oct -0.7 05:25:37 10° SSE 05:27:02 12° SE 05:28:27 10° ESE visible
25 Oct -3.3 06:11:27 10° SW 06:14:46 62° SE 06:18:06 10° ENE visible
26 Oct -2.3 05:25:34 30° SSE 05:26:14 34° SE 05:29:19 10° ENE visible
27 Oct -0.5 04:39:34 13° E 04:39:34 13° E 04:40:15 10° E visible
27 Oct -3.4 06:12:29 23° W 06:14:16 48° NNW 06:17:32 10° NE visible
28 Oct -3.1 05:26:18 52° NE 05:26:18 52° NE 05:28:58 10° NE visible
29 Oct -0.4 04:39:59 12° ENE 04:39:59 12° ENE 04:40:17 10° ENE visible
29 Oct -2.3 06:12:53 21° NW 06:13:55 24° NNW 06:16:43 10° NNE visible
30 Oct -1.9 05:26:27 24° NNE 05:26:27 24° NNE 05:28:14 10° NE visible
31 Oct -1.7 06:12:49 15° NNW 06:13:41 16° NNW 06:15:50 10° NNE visible
